Ubon Ratchathani, Thailand

12:38 AM +07 on April 25, 2018 (GMT +0700)
Ubon Ratchathani

Weather History for VTUU - November, 2011

Change the Weather History Date:

Wednesday, November 9, 2011

  Actual Average Record
Temperature  
Mean Temperature 78 °F -  
Max Temperature 86 °F 87 °F - ()
Min Temperature 70 °F 66 °F - ()
Cooling Degree Days 13    
Growing Degree Days 28 (Base 50)    
Moisture  
Dew Point 67 °F    
Average Humidity 70    
Maximum Humidity 89    
Minimum Humidity 40    
Precipitation  
Precipitation 0.00 in 0.02 in - ()
Sea Level Pressure  
Sea Level Pressure 29.80 in    
Wind  
Wind Speed 4 mph ()    
Max Wind Speed 10 mph    
Max Gust Speed -    
Visibility 5.9 miles    
Events      
T = Trace of Precipitation, MM = Missing Value Source: Averaged Metar Reports

Daily Weather History Graph

Daily Weather History Graph

Search for Another Location

Airport or City:

Astronomy

Nov. 09, 2011 Rise Set
Actual Time 5:59 AM +07 5:28 PM +07
Civil Twilight 5:37 AM +07 5:51 PM +07
Nautical Twilight 5:11 AM +07 6:17 PM +07
Astronomical Twilight 4:45 AM +07 6:42 PM +07
Moon 4:20 PM +07 (11/9) 4:30 AM +07 (11/9)
Length of Visible Light 12h 14m
Length of Day
11h 29m
Waxing Gibbous, 98% of the Moon is Illuminated
Nov 9
Waxing Gibbous
Nov 11
Full
Nov 18
Last Quarter
Nov 25
New
Dec 2
First Quarter

Hourly Weather History & Observations

Time (+07) Temp. Heat Index Dew Point Humidity Pressure Visibility Wind Dir Wind Speed Gust Speed Precip Events Conditions
12:00 AM 75.2 °F - 71.6 °F 89% 29.77 in 5.6 mi North 3.5 mph - N/A   Unknown
1:00 AM 75 °F - 71 °F 85% 29.78 in 6 mi North 3.5 mph - -   Mist
1:00 AM 75.2 °F - 71.6 °F 89% 29.77 in 5.6 mi North 3.5 mph - N/A   Unknown
3:00 AM 73.4 °F - 69.8 °F 88% 29.77 in 5.6 mi Calm Calm - N/A   Unknown
4:00 AM 73.4 °F - 68.0 °F 83% 29.77 in 5.6 mi Calm Calm - N/A   Unknown
5:00 AM 71.6 °F - 68.0 °F 88% 29.80 in 5.6 mi North 2.3 mph - N/A   Mostly Cloudy
6:00 AM 71.6 °F - 68.0 °F 88% 29.80 in 5.6 mi North 3.5 mph - N/A   Mostly Cloudy
7:00 AM 73 °F - 68 °F 80% 29.83 in 6 mi North 2.3 mph - -   Mist
7:00 AM 73.4 °F - 68.0 °F 83% 29.83 in 5.6 mi North 2.3 mph - N/A   Mostly Cloudy
8:00 AM 77.0 °F - 66.2 °F 69% 29.83 in 6.2 mi NNE 9.2 mph - N/A   Mostly Cloudy
9:00 AM 78.8 °F - 66.2 °F 65% 29.86 in 6.2 mi NNE 10.4 mph - N/A   Mostly Cloudy
10:00 AM 80.6 °F 82.7 °F 66.2 °F 61% 29.86 in 6.2 mi NNE 8.1 mph - N/A   Mostly Cloudy
11:00 AM 82.4 °F 84.6 °F 66.2 °F 58% 29.83 in 6.2 mi NNE 10.4 mph - N/A   Mostly Cloudy
12:00 PM 84.2 °F 85.6 °F 64.4 °F 51% 29.80 in 6.2 mi NE 8.1 mph - N/A   Mostly Cloudy
1:00 PM 86 °F - 65 °F 40% 29.79 in 6 mi NNE 9.2 mph - -   Scattered Clouds
1:00 PM 86.0 °F 87.3 °F 64.4 °F 48% 29.77 in 6.2 mi NNE 9.2 mph - N/A   Mostly Cloudy
2:00 PM 86.0 °F 87.3 °F 64.4 °F 48% 29.74 in 6.2 mi NE 6.9 mph - N/A   Mostly Cloudy
3:00 PM 86.0 °F 87.3 °F 64.4 °F 48% 29.74 in 6.2 mi NNE 8.1 mph - N/A   Mostly Cloudy
4:00 PM 84.2 °F 85.6 °F 64.4 °F 51% 29.74 in 6.2 mi North 6.9 mph - N/A   Mostly Cloudy
5:00 PM 82.4 °F 83.9 °F 64.4 °F 54% 29.74 in 6.2 mi NNE 6.9 mph - N/A   Mostly Cloudy
6:00 PM 78.8 °F - 66.2 °F 65% 29.77 in 5.6 mi NNE 4.6 mph - N/A   Scattered Clouds
7:00 PM 77 °F - 69 °F 70% 29.81 in 6 mi NE 4.6 mph - -   Mist
7:00 PM 77.0 °F - 69.8 °F 78% 29.80 in 5.6 mi NE 4.6 mph - N/A   Scattered Clouds
8:00 PM 77.0 °F - 68.0 °F 74% 29.83 in 5.6 mi NNE 5.8 mph - N/A   Scattered Clouds
9:00 PM 77.0 °F - 69.8 °F 78% 29.83 in 5.6 mi NNE 5.8 mph - N/A   Scattered Clouds
10:00 PM 75.2 °F - 68.0 °F 78% 29.83 in 5.6 mi NNE 8.1 mph - N/A   Scattered Clouds